When you browse on this site, cookies collect data to enhance your experience and personalize the content and advertising you see.
Visit our Privacy Policy to learn more. By continuing to use the site, you agree to this use of cookies and data.
  • en France
  • Liste des pays
  • À 7 jours
  • Température de l'eau
  • Carte satellitaire
  • Carte météo
  • Widgets météo
  • user-avatar
    Se connecter

    Météo par heure à Limón

    Ce jour, 14 Décembre, Vendredi

    Heure Température Précipitation Vent Pression Humidité
    00:00 +25°C° 0 mm 1 m/s 760 mmHg 72%
    01:00 +25°C° 0 mm 1 m/s 760 mmHg 71%
    02:00 +25°C° 0 mm 2 m/s 759 mmHg 70%
    03:00 +25°C° 0 mm 2 m/s 759 mmHg 69%
    04:00 +25°C° 0 mm 2 m/s 759 mmHg 70%
    05:00 +25°C° 0 mm 1 m/s 760 mmHg 70%
    06:00 +25°C° 0 mm 1 m/s 760 mmHg 71%
    07:00 +28°C° 0 mm 1 m/s 760 mmHg 66%
    08:00 +31°C° 0 mm 1 m/s 760 mmHg 60%
    09:00 +33°C° 0 mm 1 m/s 761 mmHg 55%
    10:00 +35°C° 0 mm 2 m/s 760 mmHg 55%
    11:00 +35°C° 0 mm 2 m/s 760 mmHg 55%
    12:00 +35°C° 0 mm 2 m/s 759 mmHg 55%
    13:00 +35°C° 0.1 mm 3 m/s 759 mmHg 58%
    14:00 +34°C° 0.1 mm 3 m/s 758 mmHg 62%
    15:00 +34°C° 0.1 mm 3 m/s 758 mmHg 65%
    16:00 +31°C° 0.6 mm 2 m/s 758 mmHg 75%
    17:00 +29°C° 0.6 mm 2 m/s 758 mmHg 84%
    18:00 +27°C° 0.6 mm 1 m/s 758 mmHg 94%
    19:00 +27°C° 0.1 mm 1 m/s 759 mmHg 92%
    20:00 +27°C° 0.1 mm 1 m/s 760 mmHg 91%
    21:00 +26°C° 0.1 mm 1 m/s 760 mmHg 89%
    22:00 +26°C° 0.4 mm 1 m/s 760 mmHg 85%
    23:00 +26°C° 0.4 mm 1 m/s 760 mmHg 82%

    Demain, 15 Décembre, Samedi

    Heure Température Précipitation Vent Pression Humidité
    00:00 +26°C° 0.4 mm 1 m/s 760 mmHg 78%
    01:00 +26°C° 0.1 mm 2 m/s 760 mmHg 76%
    02:00 +26°C° 0.1 mm 2 m/s 759 mmHg 75%
    03:00 +26°C° 0.1 mm 2 m/s 759 mmHg 73%
    04:00 +25°C° 0.1 mm 2 m/s 759 mmHg 73%
    05:00 +25°C° 0.1 mm 3 m/s 759 mmHg 74%
    06:00 +25°C° 0.1 mm 3 m/s 759 mmHg 75%
    07:00 +28°C° 0.1 mm 3 m/s 760 mmHg 70%
    08:00 +30°C° 0.1 mm 3 m/s 760 mmHg 65%
    09:00 +34°C° 0.1 mm 3 m/s 761 mmHg 60%
    10:00 +34°C° 0.2 mm 3 m/s 760 mmHg 59%
    11:00 +35°C° 0.2 mm 3 m/s 760 mmHg 58%
    12:00 +35°C° 0.2 mm 3 m/s 759 mmHg 56%
    13:00 +35°C° 0.5 mm 3 m/s 759 mmHg 58%
    14:00 +34°C° 0.5 mm 3 m/s 758 mmHg 60%
    15:00 +33°C° 0.5 mm 3 m/s 758 mmHg 62%
    16:00 +30°C° 0.4 mm 3 m/s 758 mmHg 71%
    17:00 +28°C° 0.4 mm 2 m/s 758 mmHg 80%
    18:00 +26°C° 0.4 mm 2 m/s 759 mmHg 89%
    19:00 +26°C° 0.3 mm 2 m/s 760 mmHg 85%
    20:00 +26°C° 0.3 mm 2 m/s 760 mmHg 81%
    21:00 +25°C° 0.3 mm 2 m/s 761 mmHg 77%
    22:00 +25°C° 0.3 mm 2 m/s 761 mmHg 76%
    23:00 +25°C° 0.3 mm 2 m/s 761 mmHg 76%

    Après-demain, 16 Décembre, Dimanche

    Heure Température Précipitation Vent Pression Humidité
    00:00 +25°C° 0.3 mm 2 m/s 761 mmHg 76%
    01:00 +25°C° 0.2 mm 2 m/s 760 mmHg 77%
    02:00 +25°C° 0.2 mm 2 m/s 760 mmHg 78%
    03:00 +25°C° 0.2 mm 2 m/s 759 mmHg 79%
    04:00 +25°C° 0.2 mm 2 m/s 760 mmHg 80%
    05:00 +25°C° 0.2 mm 2 m/s 760 mmHg 82%
    06:00 +25°C° 0.2 mm 2 m/s 760 mmHg 83%
    07:00 +28°C° 0.2 mm 2 m/s 761 mmHg 74%
    08:00 +30°C° 0.2 mm 2 m/s 761 mmHg 66%
    09:00 +34°C° 0.2 mm 2 m/s 762 mmHg 57%
    10:00 +34°C° 0.2 mm 2 m/s 761 mmHg 55%
    11:00 +35°C° 0.2 mm 2 m/s 760 mmHg 53%
    12:00 +35°C° 0.2 mm 2 m/s 760 mmHg 50%
    13:00 +34°C° 0.6 mm 2 m/s 759 mmHg 54%
    14:00 +32°C° 0.6 mm 2 m/s 758 mmHg 57%
    15:00 +32°C° 0.6 mm 2 m/s 758 mmHg 61%
    16:00 +30°C° 0.7 mm 2 m/s 758 mmHg 68%
    17:00 +28°C° 0.7 mm 2 m/s 759 mmHg 75%
    18:00 +26°C° 0.7 mm 2 m/s 759 mmHg 82%
    19:00 +26°C° 0.5 mm 2 m/s 760 mmHg 79%
    20:00 +25°C° 0.5 mm 2 m/s 760 mmHg 77%
    21:00 +25°C° 0.5 mm 2 m/s 761 mmHg 74%
    22:00 +25°C° 0.3 mm 2 m/s 761 mmHg 75%
    23:00 +25°C° 0.3 mm 2 m/s 760 mmHg 76%

    17 Décembre, Lundi

    Heure Température Précipitation Vent Pression Humidité
    00:00 +25°C° 0.3 mm 2 m/s 760 mmHg 78%
    01:00 +25°C° 0.2 mm 2 m/s 760 mmHg 78%
    02:00 +25°C° 0.2 mm 2 m/s 759 mmHg 79%
    03:00 +24°C° 0.2 mm 2 m/s 759 mmHg 79%
    04:00 +24°C° 0.1 mm 2 m/s 759 mmHg 79%
    05:00 +24°C° 0.1 mm 2 m/s 760 mmHg 78%
    06:00 +24°C° 0.1 mm 2 m/s 760 mmHg 78%
    07:00 +27°C° 0.1 mm 2 m/s 760 mmHg 69%
    08:00 +30°C° 0.1 mm 2 m/s 761 mmHg 60%
    09:00 +32°C° 0.1 mm 1 m/s 761 mmHg 52%
    10:00 +34°C° 0.1 mm 2 m/s 761 mmHg 50%
    11:00 +34°C° 0.1 mm 2 m/s 760 mmHg 49%
    12:00 +35°C° 0.1 mm 2 m/s 759 mmHg 48%
    13:00 +34°C° 0.1 mm 2 m/s 759 mmHg 52%
    14:00 +33°C° 0.1 mm 3 m/s 758 mmHg 57%
    15:00 +31°C° 0.1 mm 3 m/s 758 mmHg 61%
    16:00 +29°C° 0.3 mm 2 m/s 758 mmHg 70%
    17:00 +28°C° 0.3 mm 2 m/s 759 mmHg 79%
    18:00 +26°C° 0.3 mm 2 m/s 759 mmHg 89%
    19:00 +25°C° 0.2 mm 2 m/s 760 mmHg 87%
    20:00 +25°C° 0.2 mm 2 m/s 760 mmHg 85%
    21:00 +25°C° 0.2 mm 2 m/s 761 mmHg 82%
    22:00 +25°C° 0.1 mm 2 m/s 760 mmHg 80%
    23:00 +24°C° 0.1 mm 2 m/s 760 mmHg 77%

    18 Décembre, Mardi

    Heure Température Précipitation Vent Pression Humidité
    00:00 +24°C° 0.1 mm 2 m/s 760 mmHg 75%
    01:00 +24°C° 0.1 mm 3 m/s 759 mmHg 75%
    02:00 +24°C° 0.1 mm 3 m/s 759 mmHg 75%
    03:00 +24°C° 0.1 mm 3 m/s 759 mmHg 75%
    04:00 +24°C° 0.1 mm 3 m/s 759 mmHg 74%
    05:00 +24°C° 0.1 mm 3 m/s 759 mmHg 74%
    06:00 +24°C° 0.1 mm 3 m/s 760 mmHg 73%
    07:00 +27°C° 0.1 mm 3 m/s 760 mmHg 68%
    08:00 +29°C° 0.1 mm 3 m/s 761 mmHg 62%
    09:00 +32°C° 0.1 mm 2 m/s 761 mmHg 56%
    10:00 +33°C° 0.1 mm 3 m/s 760 mmHg 55%
    11:00 +34°C° 0.1 mm 3 m/s 759 mmHg 53%
    12:00 +34°C° 0.1 mm 3 m/s 759 mmHg 52%
    13:00 +34°C° 0.5 mm 3 m/s 758 mmHg 56%
    14:00 +33°C° 0.5 mm 3 m/s 758 mmHg 60%
    15:00 +31°C° 0.5 mm 3 m/s 757 mmHg 64%
    16:00 +30°C° 0.9 mm 3 m/s 758 mmHg 73%
    17:00 +28°C° 0.9 mm 2 m/s 758 mmHg 82%
    18:00 +26°C° 0.9 mm 2 m/s 759 mmHg 90%
    19:00 +26°C° 0.7 mm 2 m/s 759 mmHg 88%
    20:00 +26°C° 0.7 mm 2 m/s 760 mmHg 85%
    21:00 +26°C° 0.7 mm 2 m/s 760 mmHg 82%
    22:00 +26°C° 0.1 mm 2 m/s 760 mmHg 80%
    23:00 +26°C° 0.1 mm 2 m/s 760 mmHg 78%

    19 Décembre, Mercredi

    Heure Température Précipitation Vent Pression Humidité
    00:00 +26°C° 0.1 mm 2 m/s 759 mmHg 76%
    01:00 +25°C° 0.2 mm 2 m/s 759 mmHg 76%
    02:00 +25°C° 0.2 mm 2 m/s 759 mmHg 77%
    03:00 +25°C° 0.2 mm 2 m/s 759 mmHg 77%
    04:00 +25°C° 0.2 mm 2 m/s 759 mmHg 77%
    05:00 +25°C° 0.2 mm 2 m/s 759 mmHg 78%
    06:00 +25°C° 0.2 mm 2 m/s 760 mmHg 78%
    07:00 +27°C° 0.1 mm 2 m/s 760 mmHg 72%
    08:00 +30°C° 0.1 mm 2 m/s 760 mmHg 66%
    09:00 +32°C° 0.1 mm 2 m/s 760 mmHg 60%
    10:00 +32°C° 0.2 mm 2 m/s 760 mmHg 59%
    11:00 +34°C° 0.2 mm 3 m/s 759 mmHg 58%
    12:00 +34°C° 0.2 mm 3 m/s 759 mmHg 57%
    13:00 +33°C° 0.5 mm 3 m/s 758 mmHg 61%
    14:00 +32°C° 0.5 mm 2 m/s 758 mmHg 65%
    15:00 +31°C° 0.5 mm 2 m/s 757 mmHg 70%
    16:00 +29°C° 0.3 mm 2 m/s 758 mmHg 77%
    17:00 +28°C° 0.3 mm 1 m/s 758 mmHg 84%
    18:00 +26°C° 0.3 mm 1 m/s 759 mmHg 91%
    19:00 +26°C° 0.2 mm 1 m/s 759 mmHg 89%
    20:00 +26°C° 0.2 mm 1 m/s 759 mmHg 86%
    21:00 +26°C° 0.2 mm 1 m/s 760 mmHg 83%
    22:00 +26°C° 0.1 mm 1 m/s 759 mmHg 82%
    23:00 +26°C° 0.1 mm 2 m/s 759 mmHg 80%
    Voir plus